Regional Weather Roundup
Issued by NWS

Home | Current Version | Previous Version | Text Only | Print | Product List | Glossary Off
Versions: 1 2 3 4 5 6 7 8 9 10 11 12 13 14 15 16 17 18 19 20 21 22 23 24 25 26 27 28 29 30 31 32 33 34 35 36 37 38 39 40 41 42 43 44 45 46 47 48 49 50

000
ASUS44 KMEG 132300
RWRTN
TENNESSEE HOURLY STATE WEATHER ROUNDUP
NATIONAL WEATHER SERVICE MEMPHIS TN
500 PM CST WED DEC 13 2017

TNZ002-004-019-021-049-052-054-088>092-140000-
WEST TENNESSEE

CITY           SKY/WX    TMP DP  RH WIND       PRES   REMARKS
MEMPHIS INTL   MOCLDY    56  25  30 SW12G22   29.80S
NWS MEMPHIS      N/A     56 N/A N/A MISG        N/A
JACKSON        CLOUDY    52  26  36 SW14      29.76F
DYERSBURG      CLEAR     52  26  36 SW12      29.75S
$$

TNZ008-025-027-028-033-062-065-066-140000-
NORTH MIDDLE TENNESSEE

CITY           SKY/WX    TMP DP  RH WIND       PRES   REMARKS
NASHVILLE      PTCLDY    49  17  28 SW9       29.73R
CLARKSVILLE    CLEAR     50  18  28 SW10      29.70R
SMYRNA         CLEAR     48  18  30 S9G17     29.74S
CROSSVILLE     CLEAR     39  12  33 SW8G24    29.71R WCI  33
$$

TNZ061-075-076-078-094-096-097-140000-
SOUTH MIDDLE TENNESSEE

CITY           SKY/WX    TMP DP  RH WIND       PRES   REMARKS
WINCHESTER     CLEAR     45  16  31 SW6       29.79R
$$

TNZ017-018-042-046-047-140000-
NORTHEAST TENNESSEE

CITY           SKY/WX    TMP DP  RH WIND       PRES   REMARKS
TRI CITIES     CLOUDY    37  15  40 W7        29.69F WCI  32
$$

TNZ012-013-036-069-073-074-140000-
CENTRAL EAST TENNESSEE

CITY           SKY/WX    TMP DP  RH WIND       PRES   REMARKS
KNOXVILLE      PTCLDY    42  15  33 W17G24    29.71F
OAK RIDGE      CLEAR     42  13  30 SW8G16    29.74F
$$

TNZ083-085-099-140000-
SOUTHEAST TENNESSEE

CITY           SKY/WX    TMP DP  RH WIND       PRES   REMARKS
CHATTANOOGA    PTCLDY    45  15  30 S13G20    29.81F
$$

SKY/WX REPORTED AS FAIR MEANS FEW OR NO CLOUDS BELOW
12 THOUSAND FEET.





USA.gov is the U.S. government's official web portal to all federal, state and local government web resources and services.